This demonstration page uses our WeatherBlox Daily Observations layout. Learn more.

40.92945, -100.16068

Hourly Observations for March 17, 2018

Temp ( °F °C ) Dew Point ( °F °C ) Humidity (%) Winds ( mph kmh ) Pressure ( in mb ) Visibility ( mi km ) Precip ( " mm )
12:15 am 00:15 Mostly Cloudy 33 0.5 29 -1.8 85 85 NW 9 15 30 1016 10 16.0934 0 0
12:35 am 00:35 Mostly Cloudy 33 0.5 29 -1.5 87 87 NW 9 15 30 1016 10 16.0934 0 0
12:55 am 00:55 Cloudy 33 0.5 29 -1.4 87 87 NW 10 17 30 1016 10 16.0934 0 0
1:15 am 01:15 Cloudy 33 0.3 28 -2 85 85 NW 10 17 30 1016 10 16.0934 0 0
1:35 am 01:35 Cloudy 33 0.3 28 -2.1 84 84 NW 12 19 30 1016 10 16.0934 0 0
1:55 am 01:55 Cloudy 33 0.3 28 -2 85 85 NNW 12 19 30 1016 10 16.0934 0 0
2:15 am 02:15 Cloudy 32 0.2 28 -2.1 85 85 NNW 13 20 30 1016 10 16.0934 0 0
2:35 am 02:35 Cloudy 32 0.2 28 -2 85 85 NNW 10 17 30 1016 10 16.0934 0 0
2:55 am 02:55 Cloudy 32 0.2 28 -2 85 85 NNW 10 17 30 1016 10 16.0934 0 0
3:15 am 03:15 Cloudy 33 0.3 28 -2.1 84 84 NNW 9 15 30 1016 10 16.0934 0 0
3:35 am 03:35 Cloudy 33 0.3 28 -2.1 84 84 NNW 13 20 30 1016 10 16.0934 0 0
3:55 am 03:55 Cloudy 33 0.3 28 -2.3 83 83 NNW 13 20 30 1016 10 16.0934 0 0
4:15 am 04:15 Cloudy 33 0.3 28 -2.3 83 83 NNW 14 22 30.03 1017 10 16.0934 0 0
4:35 am 04:35 Cloudy 33 0.3 28 -2.2 84 84 NNW 15 24 30.03 1017 10 16.0934 0 0
4:55 am 04:55 Cloudy 33 0.3 28 -2.2 84 84 NNW 9 15 30.03 1017 10 16.0934 0 0
5:15 am 05:15 Cloudy 33 0.3 28 -2.1 84 84 NNW 10 17 30.03 1017 10 16.0934 0 0
5:35 am 05:35 Cloudy 33 0.3 28 -2 85 85 NNW 8 13 30.03 1017 10 16.0934 0 0
5:55 am 05:55 Cloudy 33 0.3 28 -2.1 84 84 NNW 12 19 30.09 1019 10 16.0934 0 0
6:15 am 06:15 Cloudy 33 0.3 28 -2.4 82 82 NNW 12 19 30.09 1019 10 16.0934 0 0
6:35 am 06:35 Cloudy 33 0.3 28 -2.2 84 84 NNW 13 20 30.09 1019 10 16.0934 0 0
6:55 am 06:55 Cloudy 33 0.3 28 -2.1 84 84 NNW 9 15 30.09 1019 10 16.0934 0 0
7:15 am 07:15 Cloudy 32 0.1 28 -2.2 85 85 NNW 10 17 30.09 1019 10 16.0934 0 0
7:35 am 07:35 Cloudy 32 0.1 28 -2.4 83 83 NNW 13 20 30.09 1019 10 16.0934 0 0
7:55 am 07:55 Cloudy 32 0 28 -2.3 85 85 NNW 10 17 30.09 1019 10 16.0934 0 0
8:15 am 08:15 Cloudy 32 0.2 28 -2.2 84 84 NNW 9 15 30.12 1020 10 16.0934 0 0
8:35 am 08:35 Cloudy 33 0.3 28 -2.5 82 82 N 10 17 30.12 1020 10 16.0934 0 0
8:55 am 08:55 Cloudy 33 0.3 28 -2.3 83 83 N 12 19 30.12 1020 10 16.0934 0 0
9:15 am 09:15 Cloudy 33 0.3 28 -2.5 82 82 N 10 17 30.12 1020 10 16.0934 0 0
9:35 am 09:35 Cloudy 33 0.3 28 -2.4 82 82 N 13 20 30.12 1020 10 16.0934 0 0
9:55 am 09:55 Cloudy 33 0.6 28 -2.1 82 82 N 9 15 30.12 1020 10 16.0934 0 0
10:15 am 10:15 Cloudy 33 0.5 28 -2.3 82 82 N 8 13 30.12 1020 10 16.0934 0 0
10:35 am 10:35 Cloudy 33 0.6 28 -2.1 82 82 NNE 9 15 30.12 1020 10 16.0934 0 0
10:55 am 10:55 Cloudy 33 0.8 28 -2.1 81 81 N 7 11 30.15 1021 10 16.0934 0 0
11:15 am 11:15 Cloudy 34 0.9 28 -2 81 81 N 7 11 30.15 1021 10 16.0934 0 0
11:35 am 11:35 Cloudy 34 1.1 29 -1.8 81 81 N 7 11 30.12 1020 10 16.0934 0 0
11:55 am 11:55 Cloudy 34 1.3 29 -1.9 79 79 N 6 9 30.12 1020 10 16.0934 0 0
12:15 pm 12:15 Cloudy 35 1.5 29 -1.9 78 78 NW 3 6 30.12 1020 10 16.0934 0 0
12:35 pm 12:35 Cloudy 35 1.9 29 -1.8 77 77 W 3 6 30.12 1020 10 16.0934 0 0
12:55 pm 12:55 Cloudy 36 2.2 29 -1.8 75 75 Calm 30.12 1020 10 16.0934 0 0
1:15 pm 13:15 Cloudy 37 2.5 29 -1.5 75 75 Calm 30.09 1019 10 16.0934 0 0
1:35 pm 13:35 Cloudy 38 3.3 30 -1 74 74 N 6 9 30.09 1019 10 16.0934 0 0
1:55 pm 13:55 Cloudy 38 3.6 30 -1.1 72 72 NW 5 7 30.09 1019 10 16.0934 0 0
2:15 pm 14:15 Cloudy 40 4.2 31 -0.8 70 70 SW 5 7 30.06 1018 10 16.0934 0 0
2:35 pm 14:35 Cloudy 40 4.3 30 -0.9 69 69 SW 3 6 30.06 1018 10 16.0934 0 0
2:55 pm 14:55 Mostly Cloudy 41 5.2 31 -0.5 67 67 SSW 6 9 30.03 1017 10 16.0934 0 0
3:15 pm 15:15 Partly Cloudy 43 6 31 -0.3 64 64 SW 3 6 30.03 1017 10 16.0934 0 0
3:35 pm 15:35 Partly Cloudy 44 6.4 32 0 64 64 S 3 6 30.03 1017 10 16.0934 0 0
3:55 pm 15:55 Sunny 44 6.4 32 -0.2 63 63 Calm 30.03 1017 10 16.0934 0 0
4:15 pm 16:15 Sunny 46 7.5 32 0.1 60 60 SSW 3 6 30 1016 10 16.0934 0 0
4:35 pm 16:35 Sunny 47 8.2 33 0.3 58 58 SSE 5 7 30 1016 10 16.0934 0 0
4:55 pm 16:55 Sunny 47 8.2 32 0.1 57 57 SSE 3 6 29.97 1015 10 16.0934 0 0
5:15 pm 17:15 Sunny 47 8.5 32 0.2 56 56 E 3 6 29.97 1015 10 16.0934 0 0
5:35 pm 17:35 Sunny 48 9 32 0 54 54 E 5 7 29.97 1015 10 16.0934 0 0
5:55 pm 17:55 Sunny 49 9.2 32 0.1 53 53 E 3 6 29.97 1015 10 16.0934 0 0
6:15 pm 18:15 Sunny 49 9.2 32 0 53 53 SE 3 6 29.97 1015 10 16.0934 0 0
6:35 pm 18:35 Sunny 49 9.3 32 -0.1 52 52 E 5 7 29.97 1015 10 16.0934 0 0
6:55 pm 18:55 Sunny 49 9.3 32 0 53 53 ESE 6 9 29.97 1015 10 16.0934 0 0
7:15 pm 19:15 Sunny 48 8.7 32 0 55 55 SE 10 17 29.97 1015 10 16.0934 0 0
7:35 pm 19:35 Sunny 45 7.2 33 0.4 62 62 SE 9 15 29.97 1015 10 16.0934 0 0
7:55 pm 19:55 Clear 44 6.4 32 0.2 65 65 SE 8 13 29.97 1015 10 16.0934 0 0
8:15 pm 20:15 Clear 41 5.1 32 0 70 70 ESE 9 15 30 1016 10 16.0934 0 0
8:35 pm 20:35 Clear 40 4.7 32 0 72 72 ESE 7 11 30 1016 10 16.0934 0 0
8:55 pm 20:55 Clear 40 4.3 32 0 74 74 ESE 9 15 30 1016 10 16.0934 0 0
9:15 pm 21:15 Clear 38 3.5 32 -0.2 77 77 ESE 8 13 30 1016 10 16.0934 0 0
9:35 pm 21:35 Clear 37 3 32 -0.1 80 80 ESE 8 13 30.06 1018 10 16.0934 0 0
9:55 pm 21:55 Clear 37 2.5 32 -0.2 83 83 ESE 9 15 30.06 1018 10 16.0934 0 0
10:15 pm 22:15 Clear 35 1.8 31 -0.5 85 85 ESE 12 19 30.06 1018 10 16.0934 0 0
10:35 pm 22:35 Clear 34 1.1 31 -0.8 87 87 ESE 12 19 30.06 1018 10 16.0934 0 0
10:55 pm 22:55 Clear 33 0.6 30 -1 89 89 SE 9 15 30.06 1018 10 16.0934 0 0
11:15 pm 23:15 Clear 33 0.3 30 -1.1 90 90 SE 9 15 30.09 1019 10 16.0934 0 0
11:35 pm 23:35 Clear 32 0 29 -1.5 90 90 SE 9 15 30.09 1019 10 16.0934 0 0
11:55 pm 23:55 Clear 32 0 30 -1.1 92 92 SE 10 17 30.09 1019 10 16.0934 0 0

Powered by AerisWeather